Voltar ao catálogo

ONEWEB-0263

AtivoComunicaçõesPO
NORAD 48981·PAYLOAD·🇬🇧 United Kingdom

Lançado Jul 1, 2021 de Vostochny Cosmodrome

Loading…

Próximas Passagens (próximas 24 horas)

TLE

AtualizadoSource: CelesTrak SupGP

Época: Sep 14, 2026, 23:58 UTC

1 48981C 21060Q   26257.99880046 -.00004513  00000+0 -11819-1 0  2577
2 48981  87.9139 210.9485 0002142  71.2149  39.2865 13.16596695    16

Acompanhe ONEWEB-0263 em tempo real com AllMySat

Download on the App Store